SWR92 LSZH-SBGR

Flight info

Callsign SWR92
Flight time N/A
Altitude 31000
Route VEBIT T50 ROTOS Z669 ULMES DCT VADAR DCT NINTU/N0488F330 DCT MEBAK DCT REPSI DCT LERGA DCT MINSO DCT TIVLI DCT SURCO DCT ZAR35 DCT MOLIN DCT ORTOP DCT ERMED DCT TERTO DCT ANARU/N0488F350 DCT LIMAL/N0493F340 N873 IPERA UN873 POMAT/N0492F360 UN873 FEMUR DCT LIXAM UZ72 TOGUN/N0487F380 UZ72 VUKUB UZ80 ISNEM UZ61 REDAD UZ21 VUNOX
Aircraft B77W/H-SDE1E2E3FGHIJ2J3J4J5M1RWXY/LB1D1

Departure

Time 2026-04-30 09:05
Airport Zürich Airport (LSZH)

Arrival

Time N/A
Airport São Paulo/Guarulhos–Governor André Franco Montoro International Airport (SBGR)
Time Latitude Longitude Altitude Speed Heading
2026-04-30 08:29 47.46039 8.55624 1413 ft 0 kts
2026-04-30 08:52 47.46031 8.55623 1411 ft 4 kts
2026-04-30 08:52 47.46004 8.55615 1408 ft 4 kts 13°
2026-04-30 08:52 47.45979 8.55610 1412 ft 4 kts 344°
2026-04-30 08:52 47.45959 8.55625 1415 ft 4 kts 307°
2026-04-30 08:53 47.45953 8.55658 1413 ft 4 kts 267°
2026-04-30 08:53 47.45953 8.55681 1414 ft 2 kts 275°
2026-04-30 08:53 47.45953 8.55683 1414 ft 1 kts 275°
2026-04-30 08:56 47.45953 8.55682 1407 ft 1 kts 275°
2026-04-30 08:56 47.45955 8.55650 1411 ft 6 kts 275°
2026-04-30 08:56 47.45960 8.55564 1409 ft 9 kts 276°
2026-04-30 08:57 47.45968 8.55467 1410 ft 10 kts 276°
2026-04-30 08:57 47.45975 8.55362 1405 ft 11 kts 276°
2026-04-30 08:57 47.45982 8.55250 1403 ft 11 kts 276°
2026-04-30 08:57 47.45991 8.55130 1399 ft 12 kts 276°
2026-04-30 08:58 47.45999 8.55009 1398 ft 10 kts 276°
2026-04-30 08:58 47.46040 8.54928 1403 ft 11 kts 330°
2026-04-30 08:58 47.46110 8.54878 1405 ft 11 kts 334°
2026-04-30 08:58 47.46180 8.54829 1402 ft 11 kts 335°
2026-04-30 08:59 47.46250 8.54782 1400 ft 11 kts 334°
2026-04-30 08:59 47.46323 8.54731 1385 ft 12 kts 334°
2026-04-30 08:59 47.46397 8.54681 1386 ft 12 kts 335°
2026-04-30 08:59 47.46471 8.54630 1403 ft 12 kts 335°
2026-04-30 09:00 47.46545 8.54579 1402 ft 12 kts 335°
2026-04-30 09:00 47.46619 8.54528 1401 ft 13 kts 335°
2026-04-30 09:00 47.46714 8.54463 1386 ft 16 kts 335°
2026-04-30 09:00 47.46815 8.54406 1385 ft 16 kts 339°
2026-04-30 09:01 47.46916 8.54337 1386 ft 16 kts 335°
2026-04-30 09:01 47.47015 8.54270 1386 ft 16 kts 335°
2026-04-30 09:01 47.47114 8.54201 1387 ft 16 kts 335°
2026-04-30 09:01 47.47213 8.54133 1400 ft 16 kts 335°
2026-04-30 09:02 47.47412 8.53998 1403 ft 16 kts 335°
2026-04-30 09:02 47.47510 8.53929 1406 ft 14 kts 335°
2026-04-30 09:02 47.47584 8.53868 1409 ft 12 kts 316°
2026-04-30 09:03 47.47604 8.53750 1412 ft 12 kts 258°
2026-04-30 09:03 47.47586 8.53678 1407 ft 5 kts 245°
2026-04-30 09:03 47.47570 8.53630 1405 ft 5 kts 236°
2026-04-30 09:03 47.47534 8.53625 1408 ft 6 kts 165°
2026-04-30 09:04 47.47508 8.53640 1407 ft 0 kts 157°
2026-04-30 09:05 47.47501 8.53645 1409 ft 13 kts 157°
2026-04-30 09:05 47.47113 8.53913 1385 ft 110 kts 155°
2026-04-30 09:05 47.46137 8.54595 1403 ft 199 kts 154°
2026-04-30 09:05 47.44764 8.55508 2079 ft 215 kts 152°
2026-04-30 09:06 47.43500 8.56551 3558 ft 205 kts 130°
2026-04-30 09:06 47.42901 8.58402 4309 ft 207 kts 91°
2026-04-30 09:06 47.43364 8.60441 4635 ft 218 kts 48°
2026-04-30 09:06 47.44703 8.61455 5274 ft 226 kts
2026-04-30 09:07 47.46245 8.60937 5792 ft 237 kts 328°
2026-04-30 09:07 47.47250 8.59041 6383 ft 240 kts 286°
2026-04-30 09:07 47.47258 8.56588 6841 ft 244 kts 250°
2026-04-30 09:07 47.46742 8.54214 7349 ft 244 kts 257°
2026-04-30 09:08 47.46368 8.51683 7611 ft 264 kts 258°
2026-04-30 09:08 47.46054 8.48936 8045 ft 276 kts 259°
2026-04-30 09:08 47.45358 8.46262 8306 ft 287 kts 227°
2026-04-30 09:08 47.43902 8.44249 8871 ft 289 kts 223°
2026-04-30 09:09 47.42544 8.42009 9538 ft 296 kts 231°
2026-04-30 09:09 47.41318 8.39577 10341 ft 298 kts 233°
2026-04-30 09:09 47.40102 8.37034 10808 ft 311 kts 234°
2026-04-30 09:09 47.38819 8.34293 10999 ft 337 kts 237°
2026-04-30 09:10 47.37631 8.31179 11198 ft 360 kts 243°
2026-04-30 09:10 47.36469 8.27769 11510 ft 380 kts 243°
2026-04-30 09:10 47.35256 8.24232 12024 ft 394 kts 243°
2026-04-30 09:10 47.33990 8.20602 12684 ft 402 kts 243°
2026-04-30 09:11 47.32688 8.16934 13560 ft 405 kts 243°
2026-04-30 09:11 47.31376 8.13261 14515 ft 404 kts 243°
2026-04-30 09:11 47.30072 8.09578 15292 ft 407 kts 243°
2026-04-30 09:11 47.28753 8.05835 15907 ft 415 kts 243°
2026-04-30 09:12 47.27405 8.02029 16580 ft 422 kts 243°
2026-04-30 09:12 47.26182 7.98387 17182 ft 427 kts 247°
2026-04-30 09:12 47.25027 7.94347 17881 ft 431 kts 250°
2026-04-30 09:12 47.23922 7.90212 18585 ft 436 kts 250°
2026-04-30 09:13 47.22801 7.86029 19181 ft 441 kts 250°
2026-04-30 09:13 47.21641 7.81834 19777 ft 446 kts 249°
2026-04-30 09:13 47.20445 7.77590 20372 ft 451 kts 248°
2026-04-30 09:13 47.19096 7.73481 20946 ft 456 kts 242°
2026-04-30 09:14 47.17424 7.69482 21506 ft 461 kts 235°
2026-04-30 09:14 47.15461 7.65729 22096 ft 466 kts 231°
2026-04-30 09:14 47.13410 7.62015 22646 ft 470 kts 231°
2026-04-30 09:14 47.11339 7.58270 23232 ft 474 kts 231°
2026-04-30 09:15 47.09264 7.54489 23804 ft 478 kts 231°
2026-04-30 09:15 47.07184 7.50669 24287 ft 482 kts 231°
2026-04-30 09:15 47.05090 7.46806 24748 ft 485 kts 231°
2026-04-30 09:15 47.02985 7.42929 25251 ft 487 kts 231°
2026-04-30 09:16 47.00869 7.39052 25708 ft 489 kts 231°
2026-04-30 09:16 46.98727 7.35158 26238 ft 491 kts 230°
2026-04-30 09:16 46.96583 7.31268 26714 ft 493 kts 230°
2026-04-30 09:16 46.94419 7.27341 27159 ft 496 kts 231°
2026-04-30 09:17 46.92260 7.23411 27683 ft 496 kts 231°
2026-04-30 09:17 46.90094 7.19467 28183 ft 498 kts 231°
2026-04-30 09:17 46.87921 7.15510 28578 ft 501 kts 231°
2026-04-30 09:17 46.85729 7.11526 28946 ft 504 kts 231°
2026-04-30 09:18 46.83529 7.07533 29291 ft 506 kts 231°
2026-04-30 09:18 46.81314 7.03521 29668 ft 509 kts 231°
2026-04-30 09:18 46.79224 6.99741 30004 ft 510 kts 231°
2026-04-30 09:18 46.77028 6.95776 30414 ft 510 kts 231°
2026-04-30 09:19 46.74807 6.91770 30955 ft 504 kts 231°